Location: Unspecified
(0.0000°N, 0.0000°E)
Time: 17:36:44
(UTC+00:00)

ISS - Pass Details

Date: 17 January 2021
Orbit: 418 x 421 km, 51.6° (Epoch: 25 January)

Event Time Altitude Azimuth Distance (km) Brightness Sun altitude
Exits shadow 05:04:15 34° 288° (WNW) 702 -3.2 -15.4°
Maximum altitude 05:05:18 50° 235° (SW) 537 -3.5 -15.1°
Drops below altitude 10° 05:08:34 10° 158° (SSE) 1,494 -0.3 -14.4°
Sets 05:10:42 0° 152° (SSE) 2,358 0.9 -13.9°
